Location: Bucaritos
(10.0779°N, 67.0369°W)
Time: 05:12:31
(UTC+00:00)

OBJECT-B - Pass Details

Date: 27 June 2022
Orbit: 376 x 381 km, 96.9° (Epoch: 08 May)

Event Time Altitude Azimuth Distance (km) Brightness Sun altitude
Exits shadow 23:54:00 31° 89° (E) 653 1.2 -14.5°
Maximum altitude 23:54:13 31° 78° (ENE) 645 1.3 -14.5°
Drops below altitude 10° 23:56:46 10° 13° (NNE) 1,325 3.5 -15.1°
Sets 23:58:49 0° 3° (N) 2,175 4.7 -15.5°
